Regional Weather Roundup
Issued by NWS

Home | Current Version | Previous Version | Text Only | Print | Product List | Glossary Off
Versions: 1 2 3 4 5 6 7 8 9 10 11 12 13 14 15 16 17 18 19 20 21 22 23 24 25 26 27 28 29 30 31 32 33 34 35 36 37 38 39 40 41 42 43 44 45 46 47 48 49 50

000
ASUS45 KABQ 190110
RWRNM
WEATHER ROUNDUP FOR NEW MEXICO
NATIONAL WEATHER SERVICE ALBUQUERQUE NM
700 PM MDT FRI APR 18 2014

NOTE: "FAIR" MEANS FEW OR NO CLOUDS BELOW 12,000 FEET AGL WITH NO
       SIGNIFICANT WEATHER OR OBSTRUCTIONS TO VISION.

      THIS PRODUCT IS RELEASED AS TWO VERSIONS.  ONE VERSION NEAR
      THE TOP OF THE HOUR CONTAINING PRELIMINARY DATA FROM ALBUQUERQUE
      AND OTHER STATIONS.  A FINAL VERSION WITH ADDITIONAL DATA IS
      ISSUED ABOUT 10 MINUTES AFTER THE HOUR.

NMZ501-503-504-510>518-190200-
NORTHWEST PLATEAU/NORTHCENTRAL MOUNTAINS

CITY           SKY/WX    TMP DP  RH WIND       PRES   REMARKS
FARMINGTON     CLOUDY    68  24  19 W14       29.98R
LOS ALAMOS     PTCLDY    65  17  15 S10       30.10F
SANTA FE       MOCLDY    69  18  14 VRB6      30.04S
TAOS           MOCLDY    64  16  15 SW20      30.10S
ANGEL FIRE     FAIR      59  19  21 SW9G17    30.16F

$$
NMZ402-403-502-505>509-190200-
WESTCENTRAL MOUNTAINS/SOUTHWEST MOUNTAINS

CITY           SKY/WX    TMP DP  RH WIND       PRES   REMARKS
GALLUP         CLOUDY    60  29  30 SW21G29   30.10R
GRANTS         CLOUDY    64  23  21 SW9G20    30.09R
SILVER CITY    CLOUDY    63  30  29 NW12      30.09F

$$
NMZ407-409-411-412-190200-
SOUTHERN DESERTS

CITY           SKY/WX    TMP DP  RH WIND       PRES   REMARKS
LORDSBURG      MOCLDY    66  36  32 N13G20    30.00F
DEMING         CLOUDY    71  30  21 NW14      29.99F
LAS CRUCES     CLOUDY    74  32  21 SE9       30.02R
HOLLOMAN AFB   CLOUDY    77  36  22 SE18      29.96S
ALAMOGORDO     CLOUDY    75  32  20 SE13      29.98S
T OR C         CLOUDY    72  26  18 SW16G23   30.01R

$$
NMZ519>523-190200-
CENTRAL VALLEYS/CENTRAL HIGHLANDS

CITY           SKY/WX    TMP DP  RH WIND       PRES   REMARKS
ALBUQUERQUE    CLOUDY    73  20  13 S25G33    30.00S
DOUBLE EAGLE   MOCLDY    70  23  17 S22G31    30.03R
MORIARTY ARPT  FAIR      67  22  18 S18G26    30.08R
CLINES CORNERS MOCLDY    63  24  22 S21G29    30.11R
BELEN          FAIR      73  25  16 S21G26    30.00S
SOCORRO        FAIR      74  25  15 S18G25    30.00S

$$
NMZ524>526-539-540-190200-
SOUTHCENTRAL MOUNTAINS

CITY           SKY/WX    TMP DP  RH WIND       PRES   REMARKS
RUIDOSO        MOCLDY    59  37  44 SE22      30.16F

$$
NMZ527>531-190200-
NORTHEAST HIGHLANDS/NORTHEAST PLAINS

CITY           SKY/WX    TMP DP  RH WIND       PRES   REMARKS
LAS VEGAS      CLOUDY    60  33  36 S22G30    30.09S
RATON          CLOUDY    65  36  34 S23G36    30.00S
CLAYTON        MOCLDY    68  34  28 S24G35    29.99S

$$
NMZ532>537-190200-
EASTCENTRAL PLAINS

CITY           SKY/WX    TMP DP  RH WIND       PRES   REMARKS
TUCUMCARI      CLOUDY    70  40  33 S22G31    29.99S
CANNON AFB     NOT AVBL
CLOVIS AIRPORT CLOUDY    64  43  45 S15       30.11R

$$
NMZ028-029-538-190200-
SOUTHEAST PLAINS

CITY           SKY/WX    TMP DP  RH WIND       PRES   REMARKS
ROSWELL        MOCLDY    73  45  36 S17       30.02F
ARTESIA        PTCLDY    72  41  33 SE18      30.02S
CARLSBAD       PTCLDY    75  42  30 SE15      30.01S
HOBBS          PTCLDY    70  41  35 SE15      30.07S


$$



USA.gov is the U.S. government's official web portal to all federal, state and local government web resources and services.